Mobile, AL

9:09 PM CDT on April 30, 2017 (GMT -0500)
Mobile Regional

Weather History for KMOB - February, 2014

Change the Weather History Date:

Tuesday, February 18, 2014

  Actual Average Record
Temperature  
Mean Temperature 67 °F 54 °F  
Max Temperature 74 °F 65 °F 80 °F (2000)
Min Temperature 60 °F 44 °F 19 °F (1900)
Degree Days  
Heating Degree Days 0 11  
Month to date heating degree days 253 225  
Since 1 July heating degree days 1618 1346  
Cooling Degree Days 2 0  
Month to date cooling degree days 2 0  
Year to date cooling degree days 2 7  
Growing Degree Days 16 (Base 50)    
Moisture  
Dew Point 62 °F    
Average Humidity 81    
Maximum Humidity 100    
Minimum Humidity 61    
Precipitation  
Precipitation 0.00 in 0.18 in 4.06 in (1926)
Month to date precipitation 1.57 3.27  
Year to date precipitation 4.49 8.92  
Snow  
Snow 0.00 in 0.00 in - ()
Month to date snowfall T 0.1  
Since 1 July snowfall 1.3 0.1  
Snow Depth 0.00 in    
Sea Level Pressure  
Sea Level Pressure 30.14 in    
Wind  
Wind Speed 9 mph (SSW)    
Max Wind Speed 18 mph    
Max Gust Speed 23 mph    
Visibility 6 miles    
Events Fog    
T = Trace of Precipitation, MM = Missing Value Source: NWS Daily Summary

Daily Weather History Graph

Daily Weather History Graph

Search for Another Location

Airport or City:

Trip Planner

Search our weather history database for the weather conditions in past years. The results will help you decide how hot, cold, wet, or windy it might be!

Date:

Astronomy

Feb. 18, 2014 Rise Set
Actual Time 6:30 AM CST 5:43 PM CST
Civil Twilight 6:06 AM CST 6:07 PM CST
Nautical Twilight 5:38 AM CST 6:36 PM CST
Astronomical Twilight 5:10 AM CST 7:04 PM CST
Moon 9:17 PM CST (2/18) 8:19 AM CST (2/18)
Length of Visible Light 12h 01m
Length of Day
11h 12m
Waning Gibbous, 87% of the Moon is Illuminated
Feb 18
Waning Gibbous
Feb 22
Last Quarter
Mar 1
New
Mar 8
First Quarter
Mar 16
Full

Hourly Weather History & Observations

Time (CST) Temp. Dew Point Humidity Pressure Visibility Wind Dir Wind Speed Gust Speed Precip Events Conditions
12:54 AM 62.6 °F 62.6 °F 100% 30.16 in 2.0 mi SW 9.2 mph - N/A   Overcast
12:56 AM 62.1 °F 62.1 °F 100% 30.15 in 2.0 mi SW 8.1 mph - N/A   Overcast
1:27 AM 62.1 °F 62.1 °F 100% 30.15 in 3.0 mi SW 8.1 mph - N/A   Overcast
1:56 AM 62.1 °F 62.1 °F 100% 30.14 in 3.0 mi SSW 8.1 mph - N/A   Overcast
2:28 AM 62.1 °F 62.1 °F 100% 30.14 in 2.0 mi WSW 3.5 mph - N/A   Overcast
2:35 AM 61.0 °F 61.0 °F 100% 30.14 in 1.0 mi SW 6.9 mph - N/A   Overcast
2:43 AM 61.0 °F 61.0 °F 100% 30.14 in 0.5 mi SW 4.6 mph - N/A Fog Fog
2:56 AM 61.0 °F 61.0 °F 100% 30.13 in 0.8 mi WSW 6.9 mph - N/A   Mist
3:38 AM 61.0 °F 61.0 °F 100% 30.13 in 1.0 mi SSW 9.2 mph - N/A   Overcast
3:56 AM 61.0 °F 61.0 °F 100% 30.13 in 1.0 mi SSW 9.2 mph - N/A   Overcast
4:33 AM 61.0 °F 61.0 °F 100% 30.14 in 0.8 mi SW 8.1 mph - N/A   Mist
4:56 AM 61.0 °F 61.0 °F 100% 30.14 in 0.5 mi SSW 8.1 mph - N/A Fog Fog
5:53 AM 60.8 °F 60.8 °F 100% 30.15 in 0.2 mi SSW 6.9 mph - N/A Fog Fog
5:56 AM 60.1 °F 60.1 °F 100% 30.15 in 0.2 mi SW 5.8 mph - N/A Fog Fog
6:42 AM 60.1 °F 60.1 °F 100% 30.16 in 0.5 mi SW 6.9 mph - N/A Fog Fog
6:56 AM 60.1 °F 60.1 °F 100% 30.17 in 0.8 mi SSW 6.9 mph - N/A   Overcast
7:20 AM 60.1 °F 60.1 °F 100% 30.17 in 0.2 mi SW 8.1 mph - N/A Fog Fog
7:56 AM 61.0 °F 61.0 °F 100% 30.17 in 0.2 mi SSW 9.2 mph - N/A Fog Fog
8:11 AM 61.0 °F 61.0 °F 100% 30.18 in 1.2 mi SSW 9.2 mph - N/A   Overcast
8:36 AM 62.1 °F 62.1 °F 100% 30.19 in 2.0 mi SSW 8.1 mph - N/A   Overcast
8:42 AM 62.1 °F 62.1 °F 100% 30.19 in 3.0 mi SSW 9.2 mph - N/A   Overcast
8:56 AM 63.0 °F 63.0 °F 100% 30.19 in 4.0 mi SSW 6.9 mph - N/A   Overcast
9:27 AM 64.0 °F 63.0 °F 96% 30.19 in 4.0 mi SSW 6.9 mph - N/A   Mostly Cloudy
9:56 AM 66.0 °F 63.0 °F 90% 30.19 in 5.0 mi SW 9.2 mph - N/A   Mostly Cloudy
10:56 AM 66.9 °F 63.0 °F 87% 30.19 in 6.0 mi SSW 8.1 mph - N/A   Overcast
11:25 AM 68.0 °F 62.1 °F 81% 30.19 in 8.0 mi SW 8.1 mph - N/A   Overcast
11:40 AM 69.1 °F 61.0 °F 75% 30.18 in 10.0 mi Variable 6.9 mph - N/A   Mostly Cloudy
11:56 AM 71.1 °F 62.1 °F 73% 30.17 in 10.0 mi SSW 8.1 mph - N/A   Mostly Cloudy
12:26 PM 73.0 °F 61.0 °F 66% 30.16 in 10.0 mi South 12.7 mph - N/A   Mostly Cloudy
12:56 PM 73.0 °F 60.1 °F 64% 30.14 in 10.0 mi SSW 16.1 mph 21.9 mph N/A   Mostly Cloudy
1:56 PM 73.0 °F 59.0 °F 61% 30.11 in 10.0 mi SSW 15.0 mph - N/A   Mostly Cloudy
2:56 PM 71.1 °F 60.1 °F 68% 30.11 in 10.0 mi South 16.1 mph - N/A   Mostly Cloudy
3:56 PM 69.1 °F 61.0 °F 75% 30.11 in 10.0 mi SSW 15.0 mph 21.9 mph N/A   Mostly Cloudy
4:56 PM 66.9 °F 63.0 °F 87% 30.11 in 10.0 mi South 12.7 mph - N/A   Scattered Clouds
5:14 PM 66.9 °F 63.0 °F 87% 30.12 in 8.0 mi SSW 9.2 mph - N/A   Mostly Cloudy
5:47 PM 66.0 °F 64.0 °F 93% 30.11 in 8.0 mi South 9.2 mph - N/A   Mostly Cloudy
5:56 PM 66.0 °F 64.0 °F 93% 30.11 in 8.0 mi South 12.7 mph - N/A   Mostly Cloudy
6:53 PM 64.4 °F 62.6 °F 94% 30.12 in 10.0 mi South 5.8 mph - N/A   Mostly Cloudy
6:56 PM 64.0 °F 62.1 °F 93% 30.12 in 10.0 mi South 6.9 mph - N/A   Mostly Cloudy
7:03 PM 63.0 °F 62.1 °F 97% 30.12 in 10.0 mi South 8.1 mph - N/A   Mostly Cloudy
7:56 PM 62.1 °F 62.1 °F 100% 30.12 in 10.0 mi SSE 6.9 mph - N/A   Mostly Cloudy
8:56 PM 62.1 °F 61.0 °F 96% 30.12 in 10.0 mi South 5.8 mph - N/A   Mostly Cloudy
9:56 PM 62.1 °F 60.1 °F 93% 30.11 in 10.0 mi South 9.2 mph - N/A   Partly Cloudy
10:56 PM 61.0 °F 60.1 °F 97% 30.09 in 10.0 mi South 8.1 mph - N/A   Clear
11:17 PM 62.1 °F 60.1 °F 93% 30.10 in 10.0 mi South 5.8 mph - N/A   Scattered Clouds
11:26 PM 62.1 °F 61.0 °F 96% 30.10 in 10.0 mi South 6.9 mph - N/A   Mostly Cloudy
11:56 PM 63.0 °F 62.1 °F 97% 30.08 in 10.0 mi South 6.9 mph - N/A   Overcast